Hourly Weather Rozcieta

Today, 15 July, Wednesday

Time Temperature Precipitation Wind Pressure Humidity
00:00 +12°C° 0 mm 1 mps 718 mmHg 89%
01:00 +12°C° 0 mm 1 mps 718 mmHg 90%
02:00 +12°C° 0 mm 1 mps 718 mmHg 90%
03:00 +11°C° 0 mm 1 mps 717 mmHg 90%
04:00 +11°C° 0 mm 1 mps 717 mmHg 90%
05:00 +13°C° 0 mm 1 mps 717 mmHg 85%
06:00 +15°C° 0 mm 1 mps 718 mmHg 80%
07:00 +18°C° 0 mm 1 mps 718 mmHg 75%
08:00 +20°C° 0 mm 1 mps 718 mmHg 67%
09:00 +21°C° 0 mm 1 mps 718 mmHg 60%
10:00 +23°C° 0 mm 1 mps 718 mmHg 52%
11:00 +23°C° 0 mm 1 mps 718 mmHg 51%
12:00 +24°C° 0 mm 1 mps 718 mmHg 51%
13:00 +24°C° 0 mm 2 mps 718 mmHg 50%
14:00 +24°C° 0.2 mm 1 mps 717 mmHg 54%
15:00 +23°C° 0.2 mm 1 mps 717 mmHg 58%
16:00 +23°C° 0.2 mm 1 mps 717 mmHg 62%
17:00 +22°C° 0.3 mm 1 mps 716 mmHg 68%
18:00 +20°C° 0.3 mm 1 mps 716 mmHg 75%
19:00 +19°C° 0.3 mm 1 mps 716 mmHg 82%
20:00 +17°C° 0 mm 2 mps 716 mmHg 84%
21:00 +16°C° 0 mm 2 mps 716 mmHg 86%
22:00 +14°C° 0 mm 2 mps 716 mmHg 89%
23:00 +14°C° 0 mm 2 mps 716 mmHg 89%

Tomorrow, 16 July, Thursday

Time Temperature Precipitation Wind Pressure Humidity
00:00 +14°C° 0 mm 2 mps 716 mmHg 90%
01:00 +14°C° 0 mm 2 mps 716 mmHg 90%
02:00 +14°C° 0.1 mm 2 mps 716 mmHg 91%
03:00 +14°C° 0.1 mm 2 mps 716 mmHg 92%
04:00 +14°C° 0.1 mm 1 mps 716 mmHg 93%
05:00 +14°C° 0.8 mm 2 mps 716 mmHg 94%
06:00 +14°C° 0.8 mm 2 mps 717 mmHg 95%
07:00 +15°C° 0.8 mm 2 mps 717 mmHg 96%
08:00 +15°C° 0.4 mm 2 mps 717 mmHg 92%
09:00 +16°C° 0.4 mm 1 mps 717 mmHg 89%
10:00 +16°C° 0.4 mm 1 mps 717 mmHg 86%
11:00 +18°C° 0.4 mm 1 mps 717 mmHg 81%
12:00 +18°C° 0.4 mm 2 mps 717 mmHg 75%
13:00 +20°C° 0.4 mm 2 mps 717 mmHg 70%
14:00 +19°C° 1.2 mm 2 mps 717 mmHg 74%
15:00 +19°C° 1.2 mm 2 mps 717 mmHg 77%
16:00 +18°C° 1.2 mm 2 mps 717 mmHg 81%
17:00 +17°C° 0.6 mm 2 mps 717 mmHg 83%
18:00 +16°C° 0.6 mm 1 mps 717 mmHg 86%
19:00 +15°C° 0.6 mm 1 mps 717 mmHg 88%
20:00 +14°C° 0 mm 1 mps 717 mmHg 89%
21:00 +13°C° 0 mm 1 mps 717 mmHg 90%
22:00 +12°C° 0 mm 1 mps 717 mmHg 91%
23:00 +12°C° 0 mm 1 mps 717 mmHg 92%

Day after tomorrow, 17 July, Friday

Time Temperature Precipitation Wind Pressure Humidity
00:00 +12°C° 0 mm 1 mps 717 mmHg 92%
01:00 +12°C° 0 mm 1 mps 717 mmHg 92%
02:00 +12°C° 0 mm 1 mps 717 mmHg 92%
03:00 +11°C° 0 mm 1 mps 716 mmHg 93%
04:00 +11°C° 0 mm 1 mps 716 mmHg 93%
05:00 +12°C° 0.1 mm 1 mps 717 mmHg 90%
06:00 +14°C° 0.1 mm 1 mps 717 mmHg 87%
07:00 +15°C° 0.1 mm 1 mps 717 mmHg 84%
08:00 +16°C° 0.3 mm 1 mps 717 mmHg 78%
09:00 +18°C° 0.3 mm 1 mps 717 mmHg 73%
10:00 +19°C° 0.3 mm 1 mps 717 mmHg 67%
11:00 +20°C° 0.3 mm 1 mps 717 mmHg 65%
12:00 +20°C° 0.3 mm 1 mps 717 mmHg 63%
13:00 +21°C° 0.3 mm 1 mps 717 mmHg 61%
14:00 +20°C° 0.6 mm 1 mps 717 mmHg 64%
15:00 +20°C° 0.6 mm 1 mps 717 mmHg 66%
16:00 +20°C° 0.6 mm 1 mps 717 mmHg 69%
17:00 +19°C° 0.4 mm 1 mps 717 mmHg 74%
18:00 +16°C° 0.4 mm 1 mps 717 mmHg 79%
19:00 +14°C° 0.4 mm 0 mps 717 mmHg 84%
20:00 +13°C° 0.4 mm 0 mps 717 mmHg 86%
21:00 +12°C° 0.4 mm 0 mps 717 mmHg 88%
22:00 +11°C° 0.4 mm 0 mps 717 mmHg 90%
23:00 +11°C° 0.5 mm 0 mps 717 mmHg 92%

18 July, Saturday

Time Temperature Precipitation Wind Pressure Humidity
00:00 +12°C° 0.5 mm 1 mps 717 mmHg 93%
01:00 +12°C° 0.5 mm 1 mps 717 mmHg 94%
02:00 +12°C° 0.3 mm 1 mps 717 mmHg 94%
03:00 +12°C° 0.3 mm 1 mps 717 mmHg 95%
04:00 +12°C° 0.3 mm 1 mps 717 mmHg 95%
05:00 +13°C° 0.2 mm 1 mps 717 mmHg 94%
06:00 +14°C° 0.2 mm 1 mps 718 mmHg 93%
07:00 +15°C° 0.2 mm 1 mps 718 mmHg 92%
08:00 +15°C° 0.5 mm 1 mps 718 mmHg 88%
09:00 +16°C° 0.5 mm 1 mps 718 mmHg 85%
10:00 +18°C° 0.5 mm 1 mps 718 mmHg 82%
11:00 +18°C° 0.8 mm 2 mps 718 mmHg 78%
12:00 +19°C° 0.8 mm 2 mps 718 mmHg 75%
13:00 +20°C° 0.8 mm 2 mps 718 mmHg 71%
14:00 +19°C° 0.8 mm 2 mps 718 mmHg 73%
15:00 +19°C° 0.8 mm 2 mps 718 mmHg 75%
16:00 +19°C° 0.8 mm 2 mps 717 mmHg 78%
17:00 +18°C° 0.3 mm 2 mps 717 mmHg 81%
18:00 +18°C° 0.3 mm 1 mps 717 mmHg 84%
19:00 +15°C° 0.3 mm 0 mps 717 mmHg 86%
20:00 +14°C° 0 mm 0 mps 717 mmHg 88%
21:00 +13°C° 0 mm 0 mps 718 mmHg 89%
22:00 +13°C° 0 mm 1 mps 718 mmHg 90%
23:00 +12°C° 0 mm 1 mps 718 mmHg 90%

19 July, Sunday

Time Temperature Precipitation Wind Pressure Humidity
00:00 +12°C° 0 mm 1 mps 717 mmHg 90%
01:00 +12°C° 0 mm 1 mps 717 mmHg 90%
02:00 +12°C° 0 mm 1 mps 717 mmHg 90%
03:00 +12°C° 0 mm 1 mps 717 mmHg 90%
04:00 +12°C° 0 mm 1 mps 717 mmHg 89%
05:00 +13°C° 0.1 mm 1 mps 718 mmHg 88%
06:00 +14°C° 0.1 mm 1 mps 718 mmHg 86%
07:00 +15°C° 0.1 mm 1 mps 718 mmHg 85%
08:00 +18°C° 0.2 mm 1 mps 718 mmHg 79%
09:00 +20°C° 0.2 mm 1 mps 718 mmHg 74%
10:00 +20°C° 0.2 mm 2 mps 718 mmHg 68%
11:00 +21°C° 0.3 mm 2 mps 718 mmHg 66%
12:00 +23°C° 0.3 mm 2 mps 718 mmHg 63%
13:00 +24°C° 0.3 mm 3 mps 718 mmHg 61%
14:00 +24°C° 0.3 mm 3 mps 718 mmHg 62%
15:00 +24°C° 0.3 mm 3 mps 717 mmHg 64%
16:00 +24°C° 0.3 mm 3 mps 717 mmHg 65%
17:00 +21°C° 0.4 mm 3 mps 717 mmHg 72%
18:00 +20°C° 0.4 mm 2 mps 717 mmHg 79%
19:00 +18°C° 0.4 mm 2 mps 717 mmHg 86%
20:00 +18°C° 0.1 mm 2 mps 717 mmHg 88%
21:00 +17°C° 0.1 mm 2 mps 717 mmHg 90%
22:00 +16°C° 0.1 mm 2 mps 717 mmHg 92%
23:00 +15°C° 0 mm 2 mps 717 mmHg 92%

20 July, Monday

Time Temperature Precipitation Wind Pressure Humidity
00:00 +15°C° 0 mm 2 mps 717 mmHg 93%
01:00 +15°C° 0 mm 2 mps 717 mmHg 93%
02:00 +15°C° 0 mm 2 mps 717 mmHg 93%
03:00 +14°C° 0 mm 2 mps 717 mmHg 93%
04:00 +14°C° 0 mm 2 mps 717 mmHg 93%
05:00 +16°C° 0 mm 1 mps 718 mmHg 89%
06:00 +18°C° 0 mm 1 mps 718 mmHg 86%
07:00 +20°C° 0 mm 1 mps 718 mmHg 83%
08:00 +21°C° 0.2 mm 1 mps 718 mmHg 78%
09:00 +21°C° 0.2 mm 2 mps 719 mmHg 72%
10:00 +24°C° 0.2 mm 2 mps 719 mmHg 67%
11:00 +24°C° 0.7 mm 2 mps 719 mmHg 68%
12:00 +24°C° 0.7 mm 2 mps 719 mmHg 70%
13:00 +24°C° 0.7 mm 2 mps 719 mmHg 72%
14:00 +23°C° 0.9 mm 2 mps 719 mmHg 75%
15:00 +23°C° 0.9 mm 2 mps 719 mmHg 77%
16:00 +22°C° 0.9 mm 1 mps 719 mmHg 80%
17:00 +21°C° 1 mm 1 mps 718 mmHg 83%
18:00 +20°C° 1 mm 1 mps 718 mmHg 86%
19:00 +19°C° 1 mm 1 mps 718 mmHg 89%
20:00 +18°C° 0.4 mm 1 mps 719 mmHg 90%
21:00 +18°C° 0.4 mm 1 mps 719 mmHg 91%
22:00 +15°C° 0.4 mm 0 mps 719 mmHg 92%
23:00 +16°C° 0.4 mm 1 mps 719 mmHg 92%
Show more